TimeEDT,TemperatureF,Dew PointF,Humidity,Sea Level PressureIn,VisibilityMPH,Wind Direction,Wind SpeedMPH,Gust SpeedMPH,PrecipitationIn,Events,Conditions,WindDirDegrees,DateUTC
12:54 AM,73.0,71.1,93,29.98,10.0,SSE,3.5,-,0.01,,Clear,160,2013-10-07 04:54:00
1:54 AM,75.0,72.0,90,29.98,10.0,South,6.9,-,0.08,Rain,Light Rain,170,2013-10-07 05:54:00
2:54 AM,73.0,71.1,93,29.96,9.0,Calm,Calm,-,N/A,,Clear,0,2013-10-07 06:54:00
3:54 AM,73.0,71.1,93,29.94,10.0,Calm,Calm,-,N/A,,Clear,0,2013-10-07 07:54:00
4:54 AM,73.0,71.1,93,29.95,10.0,Calm,Calm,-,N/A,,Clear,0,2013-10-07 08:54:00
5:05 AM,71.6,69.8,94,29.95,1.8,Calm,Calm,-,N/A,,Clear,0,2013-10-07 09:05:00
5:13 AM,71.6,69.8,94,29.95,3.0,Calm,Calm,-,N/A,,Clear,0,2013-10-07 09:13:00
5:45 AM,69.8,69.8,100,29.94,1.8,Calm,Calm,-,N/A,,Partly Cloudy,0,2013-10-07 09:45:00
5:54 AM,70.0,69.1,97,29.94,0.5,Calm,Calm,-,N/A,Fog,Fog,0,2013-10-07 09:54:00
6:02 AM,69.8,68.0,94,29.94,7.0,Calm,Calm,-,N/A,,Clear,0,2013-10-07 10:02:00
6:54 AM,69.1,66.9,93,29.94,7.0,Variable,3.5,-,0.01,,Clear,0,2013-10-07 10:54:00
7:54 AM,73.0,71.1,93,29.94,9.0,SSE,3.5,-,N/A,,Clear,160,2013-10-07 11:54:00
8:54 AM,78.1,72.0,81,29.95,10.0,South,8.1,-,N/A,,Clear,170,2013-10-07 12:54:00
9:54 AM,81.0,71.1,72,29.95,10.0,South,11.5,19.6,N/A,,Partly Cloudy,190,2013-10-07 13:54:00
10:54 AM,82.9,70.0,65,29.95,10.0,South,12.7,20.7,N/A,,Partly Cloudy,180,2013-10-07 14:54:00
11:54 AM,84.9,69.1,59,29.94,10.0,South,18.4,24.2,N/A,,Scattered Clouds,170,2013-10-07 15:54:00
12:54 PM,84.9,70.0,61,29.91,10.0,South,16.1,20.7,N/A,,Mostly Cloudy,190,2013-10-07 16:54:00
1:54 PM,84.0,68.0,58,29.90,10.0,South,13.8,23.0,N/A,,Scattered Clouds,190,2013-10-07 17:54:00
2:54 PM,84.0,69.1,61,29.88,10.0,South,15.0,-,N/A,,Scattered Clouds,180,2013-10-07 18:54:00
3:54 PM,82.0,70.0,67,29.89,10.0,South,8.1,-,N/A,,Partly Cloudy,190,2013-10-07 19:54:00
4:54 PM,80.1,71.1,74,29.90,10.0,South,4.6,-,0.00,Rain,Light Rain,180,2013-10-07 20:54:00
5:54 PM,78.1,73.0,84,29.89,10.0,Calm,Calm,-,0.05,,Scattered Clouds,0,2013-10-07 21:54:00
6:54 PM,75.9,73.0,91,29.88,9.0,SE,3.5,-,N/A,,Mostly Cloudy,130,2013-10-07 22:54:00
7:54 PM,75.9,72.0,87,29.90,10.0,Calm,Calm,-,N/A,,Partly Cloudy,0,2013-10-07 23:54:00
8:54 PM,75.0,72.0,90,29.92,8.0,Calm,Calm,-,0.00,Rain,Light Rain,0,2013-10-08 00:54:00
9:54 PM,75.0,73.0,94,29.94,6.0,Calm,Calm,-,0.00,,Overcast,0,2013-10-08 01:54:00
10:54 PM,73.9,72.0,93,29.95,4.0,Calm,Calm,-,N/A,,Overcast,0,2013-10-08 02:54:00
11:54 PM,75.0,73.0,94,29.94,5.0,Calm,Calm,-,N/A,,Mostly Cloudy,0,2013-10-08 03:54:00